Flag for U.S.A. Weather past 2 weeks in Boston, Massachusetts, U.S.A.

Now
71 °F

Partly sunny.


Feels Like: 73 °F
Forecast: 66 / 84 °F
Wind: 7 mph from Southwest

Location: Logan International Airport

Current Time: Aug 30, 2015 at 8:58:20 AM

Latest Report: Aug 30, 2015 at 7:54 AM


Visibility: 10 mi

Pressure: 30.07 "Hg

Humidity: 76%

Dew point: 63 °F

Location of BostonLocation

Historic Weather in Boston — Graph

°F

Boston temperature yesterday

Maximum temperature yesterday: 81 °F (at 2:54 PM)
Minimum temperature yesterday: 64 °F (at 2:54 AM)
Average temperature yesterday: 74 °F

Past Weeks' High & Low Weather Summary

 TemperatureHumidityPressure
High90 °F (Aug 15, 3:54 PM)100% (Aug 20, 11:54 PM)30.19 "Hg (Aug 20, 11:54 PM)
Low64 °F (Aug 28, 5:54 AM)39% (Aug 27, 12:54 PM)29.83 "Hg (Aug 25, 5:54 PM)
Average74 °F76%30.02 "Hg
* Reported Aug 15 6:54 AM — Aug 30 6:54 AM, Boston, Weather by CustomWeather, © 2015

Note: Actual official high and low records may vary slightly from our data, if they occured in-between our weather recording intervals... More about our weather records

Advertising

Boston weather history for previous 24 hours

 ConditionsComfort  
Time TempWeatherWind HumidityBarometerVisibility
6:54 AM
Sun, Aug 30
69 °FPassing clouds.12 mph81%30.06 "Hg10 mi
5:54 AM69 °FPartly cloudy.10 mph79%30.05 "Hg10 mi
4:54 AM70 °FPartly cloudy.10 mph73%30.05 "Hg10 mi
3:54 AM70 °FPartly cloudy.13 mph71%30.06 "Hg10 mi
2:54 AM71 °FPassing clouds.15 mph68%30.06 "Hg10 mi
1:54 AM71 °FPassing clouds.14 mph68%30.07 "Hg10 mi
12:54 AM71 °FOvercast.9 mph66%30.08 "Hg10 mi
11:54 PM
Sat, Aug 29
70 °FPassing clouds.12 mph66%30.09 "Hg10 mi
10:54 PM70 °FPassing clouds.8 mph66%30.09 "Hg10 mi
9:54 PM75 °FPassing clouds.7 mph52%30.09 "Hg10 mi
8:54 PM77 °FPassing clouds.7 mph47%30.09 "Hg10 mi
7:54 PM77 °FBroken clouds.7 mph45%30.08 "Hg10 mi
6:54 PM78 °FPartly sunny.10 mph43%30.08 "Hg10 mi
5:54 PM79 °FPartly sunny.8 mph42%30.07 "Hg10 mi
4:54 PM80 °FBroken clouds.12 mph39%30.08 "Hg10 mi
3:54 PM81 °FBroken clouds.8 mph39%30.09 "Hg10 mi
2:54 PM81 °FBroken clouds.8 mph39%30.11 "Hg10 mi
1:54 PM80 °FPartly sunny.13 mph41%30.14 "Hg10 mi
12:54 PM79 °FPassing clouds.10 mph42%30.15 "Hg10 mi
11:54 AM79 °FScattered clouds.13 mph42%30.16 "Hg10 mi
10:54 AM78 °FPassing clouds.13 mph42%30.18 "Hg10 mi
9:54 AM76 °FSunny.7 mph45%30.19 "Hg10 mi
8:54 AM72 °FSunny.5 mph55%30.19 "Hg10 mi
Weather by CustomWeather, © 2015

See weather overviewHow to use our weather pages